Regional Weather Roundup
Issued by NWS

Home | Current Version | Previous Version | Text Only | Print | Product List | Glossary Off
Versions: 1 2 3 4 5 6 7 8 9 10 11 12 13 14 15 16 17 18 19 20 21 22 23 24 25 26 27 28 29 30 31 32 33 34 35 36 37 38 39 40 41 42 43 44 45 46 47 48 49 50

169
ASUS44 KJAN 010310
RWRMS

MISSISSIPPI HOURLY WEATHER ROUNDUP
NATIONAL WEATHER SERVICE JACKSON MS
1000 PM CDT THU JUL 31 2014

NOTE: "FAIR: INDICATES FEW OR NO CLOUDS BELOW 12,000 FEET WITH NO
SIGNIFICANT WEATHER AND/OR OBSTRUCTIONS TO VISIBILITY.

MSZ001>002-007>008-010>013-018>021-025>028-034>036-010400-
NORTHWEST MISSISSIPPI

CITY           SKY/WX    TMP DP  RH WIND       PRES   REMARKS
CLARKSDALE     CLOUDY    72  72 100 CALM      30.06R
CLEVELAND      FAIR      72  70  92 NE6       30.04R
GREENWOOD      PTCLDY    70  68  93 CALM      30.03S FOG
GREENVILLE     CLOUDY    72  70  93 CALM      30.03R FOG
GRENADA        FAIR      72  66  83 N3        30.04S
OLIVE BRANCH   CLEAR     72  72 100 N3        30.07R
OXFORD         FAIR      72  66  83 CALM      30.07R
TUNICA         CLOUDY    72  66  83 N5        30.06S
$$

MSZ003>006-009-014>017-022>024-029>033-037>039-010400-
NORTHEAST MISSISSIPPI

CITY           SKY/WX    TMP DP  RH WIND       PRES   REMARKS
BELMONT        FAIR      68  65  92 CALM      30.06S
COLUMBUS AFB   NOT AVBL
CORINTH          N/A     68  66  94 CALM      30.05S
GOLDN TRIANGLE CLOUDY    72  63  73 CALM      30.05S
STARKVILLE     FAIR      68  64  88 CALM      30.04S
TUPELO         PTCLDY    71  65  81 NE3       30.04S
$$

MSZ040-058-010400-
CENTRAL MISSISSIPPI

CITY           SKY/WX    TMP DP  RH WIND       PRES   REMARKS
JACKSON INTL   MOCLDY    75  67  76 NE3       30.02R
JACKSON HAWKNS CLOUDY    77  64  64 CALM      30.03R
MERIDIAN KEY   PTCLDY    74  61  63 NE5       30.03R
MERIDIAN NAS   MOCLDY    74  62  66 N3        30.04S
RAYMOND        FAIR      72  66  83 CALM      30.02S
VICKSBURG      CLOUDY    73  68  84 E3        30.01S
$$

MSZ059>079-010400-
SOUTH MISSISSIPPI

CITY           SKY/WX    TMP DP  RH WIND       PRES   REMARKS
BROOKHAVEN     FAIR      70  70 100 CALM      30.04R
COLUMBIA       FAIR      72  68  88 CALM      30.01R
HATTIESBURG    PTCLDY    72  68  87 CALM      30.02S
MCCOMB         PTCLDY    74  64  71 VRB3      30.01S
NATCHEZ        MOCLDY    73  66  78 NE5       30.01R
PINE BELT      PTCLDY    70  64  83 CALM      30.03S
$$

MSZ080>082-010400-
COASTAL MISSISSIPPI

CITY           SKY/WX    TMP DP  RH WIND       PRES   REMARKS
BILOXI         PTCLDY    77  66  68 NE6       30.00R
PASCAGOULA     PTCLDY    71  68  90 CALM      30.00R
GULFPORT       PTCLDY    80  66  62 N6        29.99R
$$



USA.gov is the U.S. government's official web portal to all federal, state and local government web resources and services.